Weather History for Akron, CO

Change the Weather History Date:

Friday, May 18, 2012

  Actual Average Record
Temperature  
Mean Temperature 74 °F 58 °F  
Max Temperature 91 °F 71 °F 91 °F (2012)
Min Temperature 57 °F 44 °F 30 °F (1942)
Degree Days  
Heating Degree Days 0    
Month to date heating degree days 116  
Cooling Degree Days 9    
Month to date cooling degree days 20  
Growing Degree Days 25 (Base 50)    
Moisture  
Dew Point 30 °F    
Average Humidity 34    
Maximum Humidity 60    
Minimum Humidity 7    
Precipitation  
Precipitation 0.00 in 0.09 in 0.85 in (1953)
Month to date precipitation 0.19 1.57  
Year to date precipitation 2.44 4.83  
Sea Level Pressure  
Sea Level Pressure 29.47 in    
Wind  
Wind Speed 13 mph (SW)    
Max Wind Speed 32 mph    
Max Gust Speed 38 mph    
Visibility 10 miles    
Events      
T = Trace of Precipitation, MM = Missing Value Source: NWS Daily Summary

Daily Weather History Graph

Daily Weather History Graph

Search for Another Location

Airport:

Trip Planner

Search our weather history database for the weather conditions in past years. The results will help you decide how hot, cold, wet, or windy it might be!

Date:

Astronomy

May. 18, 2012 Rise Set
Actual Time 5:34 AM MDT 8:05 PM MDT
Civil Twilight 5:02 AM MDT 8:36 PM MDT
Nautical Twilight 4:24 AM MDT 9:15 PM MDT
Astronomical Twilight 3:41 AM MDT 9:58 PM MDT
Moon 4:04 AM MDT (5/18) 6:15 PM MDT (5/18)
Length of Visible Light 15h 33m
Length of Day
14h 31m
Waning Crescent, 4% of the Moon is Illuminated
May 18
Waning Crescent
May 20
New
May 28
First Quarter
Jun 4
Full
Jun 11
Last Quarter

Hourly Weather History & Observations

Time (MDT) Temp. Dew Point Humidity Pressure Visibility Wind Dir Wind Speed Gust Speed Precip Events Conditions
12:53 AM 59.0 °F 34.0 °F 39% 29.61 in 10.0 mi South 10.4 mph - N/A   Clear
1:53 AM 62.1 °F 33.1 °F 34% 29.57 in 10.0 mi SSW 12.7 mph - N/A   Clear
2:53 AM 63.0 °F 34.0 °F 34% 29.56 in 10.0 mi SSW 12.7 mph - N/A   Clear
3:53 AM 61.0 °F 34.0 °F 36% 29.55 in 10.0 mi SSW 11.5 mph - N/A   Clear
4:53 AM 60.1 °F 30.9 °F 33% 29.53 in 10.0 mi SSW 9.2 mph - N/A   Clear
5:53 AM 63.0 °F 28.9 °F 28% 29.53 in 10.0 mi South 8.1 mph - N/A   Clear
6:53 AM 63.0 °F 32.0 °F 31% 29.54 in 10.0 mi SSW 5.8 mph - N/A   Clear
8:53 AM 73.0 °F 35.1 °F 25% 29.53 in 10.0 mi WNW 4.6 mph - N/A   Clear
9:53 AM 82.0 °F 35.1 °F 18% 29.51 in 10.0 mi East 8.1 mph - N/A   Clear
10:53 AM 84.0 °F 28.9 °F 14% 29.47 in 10.0 mi Calm Calm - N/A   Clear
11:53 AM 87.1 °F 21.9 °F 9% 29.45 in 10.0 mi SSW 20.7 mph 27.6 mph N/A   Clear
12:53 PM 90.0 °F 19.0 °F 7% 29.42 in 10.0 mi South 24.2 mph 28.8 mph N/A   Clear
1:53 PM 91.0 °F 19.9 °F 7% 29.39 in 10.0 mi SSW 20.7 mph 27.6 mph N/A   Clear
2:53 PM 89.1 °F 18.0 °F 7% 29.38 in 10.0 mi SSW 20.7 mph 26.5 mph N/A   Clear
3:53 PM 88.0 °F 17.1 °F 7% 29.36 in 10.0 mi South 17.3 mph 27.6 mph N/A   Clear
4:53 PM 90.0 °F 17.1 °F 7% 29.34 in 10.0 mi South 20.7 mph 27.6 mph N/A   Clear
5:53 PM 84.0 °F 19.0 °F 9% 29.35 in 10.0 mi West 20.7 mph 36.8 mph N/A   Clear
6:53 PM 80.1 °F 25.0 °F 13% 29.39 in 10.0 mi WNW 9.2 mph - N/A   Clear
7:53 PM 73.9 °F 33.1 °F 22% 29.42 in 10.0 mi NNW 17.3 mph 31.1 mph N/A   Clear
8:53 PM 69.1 °F 36.0 °F 30% 29.42 in 10.0 mi North 15.0 mph - N/A   Clear
9:53 PM 64.9 °F 37.0 °F 36% 29.43 in 10.0 mi North 11.5 mph - N/A   Clear
10:53 PM 63.0 °F 45.0 °F 52% 29.52 in 10.0 mi NNW 25.3 mph 35.7 mph N/A   Clear
11:53 PM 60.1 °F 46.9 °F 62% 29.55 in 10.0 mi NNW 25.3 mph 31.1 mph N/A   Clear